Regional Weather Roundup
Issued by NWS

Home | Current Version | Previous Version | Graphics & Text | Print | Product List | Glossary On
Versions: 1 2 3 4 5 6 7 8 9 10 11 12 13 14 15 16 17 18 19 20 21 22 23 24 25 26 27 28 29 30 31 32 33 34 35 36 37 38 39 40 41 42 43 44 45 46 47 48 49 50
000
ASUS43 KIND 201859
RWRIN

WEATHER ROUNDUP FOR INDIANA
NATIONAL WEATHER SERVICE INDIANAPOLIS IN
300 PM EDT MON OCT 20 2014

NOTE: "FAIR" INDICATES FEW OR NO CLOUDS BELOW 12,000 FEET WITH NO
SIGNIFICANT WEATHER AND/OR OBSTRUCTIONS TO VISIBILITY.

* - STATION DOES NOT REPORT WEATHER SUCH AS PRECIPITATION OR FOG.

+ - STATION NOT QUALITY CONTROLLED BY THE NATIONAL WEATHER SERVICE.
    USE DATA WITH CAUTION...ESPECIALLY DEWPOINT AND RELATIVE
    HUMIDITY OBSERVATIONS.

INZ001>003-010>013-019-020-202000-
NORTHWEST INDIANA

CITY           SKY/WX    TMP DP  RH WIND       PRES   REMARKS
GARY /AIRPORT/ MOSUNNY   63  48  59 N8        29.84F
VALPARAISO     NOT AVBL

$$

LMZ046-743>745-202000-
SOUTHERN LAKE MICHIGAN

STATION/POSITION TIME  TEMP WIND        PRES
                       AIR  DIR/SP/G
                 (UTC) (F)  (DEG/KT/KT) (MB)
MICHIGAN CITY    1800   54  270/ 11/ 13   N/A

$$

INZ004-005-014>016-021>024-202000-
NORTH CENTRAL INDIANA

CITY           SKY/WX    TMP DP  RH WIND       PRES   REMARKS
ELKHART        MOSUNNY   61  48  63 NW7       29.81F
GOSHEN         MOSUNNY   60  49  66 NW10      29.80F
SOUTH BEND     MOSUNNY   60  48  64 NW13      29.83S

$$

INZ006>009-017-018-025>027-202000-
NORTHEAST INDIANA

CITY           SKY/WX    TMP DP  RH WIND       PRES   REMARKS
ANGOLA *+      CLOUDY    55  46  71 CALM      29.81R
FORT WAYNE     CLOUDY    56  50  80 SW8       29.83S

$$

INZ028-029-035-036-043>045-051>053-202000-
WEST CENTRAL INDIANA

CITY           SKY/WX    TMP DP  RH WIND       PRES   REMARKS
GREENCASTLE +  PTSUNNY   64  50  59 W6G16     29.86F
LAFAYETTE      SUNNY     66  48  52 W12G18    29.82F
TERRE HAUTE    MOSUNNY   70  49  47 W9G20     29.86F

$$

INZ030>032-037>040-046>048-054>057-064-065-202000-
CENTRAL INDIANA

CITY           SKY/WX    TMP DP  RH WIND       PRES   REMARKS
COLUMBUS       PTSUNNY   64  52  63 SW15      29.86F
INDIANAPOLIS   PTSUNNY   63  50  62 W15       29.85F
-EAGLE CREEK   MOSUNNY   65  50  58 SW9       29.83F
KOKOMO *+      PTSUNNY   63  48  59 W18       29.82S
MT COMFORT *+  PTSUNNY   63  45  51 W12G20    29.85F
SHELBYVILLE    MOSUNNY   65  51  60 W14       29.85F

$$

INZ033-034-041-042-049-050-058-059-202000-
EAST CENTRAL INDIANA

CITY           SKY/WX    TMP DP  RH WIND       PRES   REMARKS
MUNCIE         PTSUNNY   59  51  75 SW13G23   29.83F

$$

INZ060-061-067>069-081>083-085>088-202000-
SOUTHWEST INDIANA

CITY           SKY/WX    TMP DP  RH WIND       PRES   REMARKS
EVANSVILLE     SUNNY     70  53  54 SW15G22   29.91F
HUNTINGBURG *+ SUNNY     68  54  60 W13       29.90F

$$

INZ062-063-066-070>080-084-089>092-202000-
SOUTH CENTRAL AND SOUTHEAST INDIANA

CITY           SKY/WX    TMP DP  RH WIND       PRES   REMARKS
BLOOMINGTON    MOSUNNY   65  51  60 SW13G20   29.88F

$$




USA.gov is the U.S. government's official web portal to all federal, state and local government web resources and services.